FW6583 Weather Reports


time (UTC)temp
C
wind
direction
speed
KPH
gust
KPH
rain 1hr
cm
rain 24hr
cm
rain mn
cm
humidity
%
barometer
mb
20260903212025 28 0 0.0 1.6 0.00 0.00 0.00 83 1018.1
20260903211615 28 0 0.0 1.6 0.00 0.00 0.00 83 1018.3
20260903211028 28 110 0.0 1.6 0.00 0.00 0.00 84 1018.4
20260903210526 28 109 0.0 1.6 0.00 0.00 0.00 84 1018.4
20260903210049 28 103 1.6 1.6 0.00 0.00 0.00 83 1018.6
20260903205525 28 99 0.0 1.6 0.00 0.00 0.00 83 1018.6
20260903205026 28 0 0.0 1.6 0.00 0.00 0.00 83 1018.9
20260903204556 28 0 0.0 3.2 0.00 0.00 0.00 82 1018.9
20260903204023 28 0 1.6 3.2 0.00 0.00 0.00 81 1018.7
20260903203526 28 108 1.6 1.6 0.00 0.00 0.00 80 1018.7
20260903203054 29 124 0.0 1.6 0.00 0.00 0.00 79 1018.9
20260903202525 29 101 0.0 1.6 0.00 0.00 0.00 79 1019.1
20260903202026 29 0 0.0 1.6 0.00 0.00 0.00 79 1019.1
20260903201549 29 0 0.0 3.2 0.00 0.00 0.00 79 1019.0
20260903201025 30 125 0.0 3.2 0.00 0.00 0.00 78 1018.9
20260903200526 30 116 1.6 3.2 0.00 0.00 0.00 76 1019.3
20260903200046 31 0 0.0 1.6 0.00 0.00 0.00 73 1019.5
20260903195524 31 224 0.0 1.6 0.00 0.00 0.00 74 1019.5
20260903195027 31 0 0.0 1.6 0.00 0.00 0.00 75 1019.7
20260903194547 30 0 0.0 3.2 0.00 0.00 0.00 75 1019.6
20260903194028 30 0 0.0 3.2 0.00 0.00 0.00 74 1019.6
20260903193525 31 115 0.0 3.2 0.00 0.00 0.00 74 1019.6
20260903193054 31 114 0.0 3.2 0.00 0.00 0.00 73 1019.6
20260903192535 31 47 0.0 3.2 0.00 0.00 0.00 71 1019.8
20260903192026 31 23 1.6 3.2 0.00 0.00 0.00 70 1019.9
20260903191549 32 255 1.6 3.2 0.00 0.00 0.00 70 1020.1
20260903191025 32 29 0.0 3.2 0.00 0.00 0.00 70 1020.0
20260903190528 32 58 0.0 3.2 0.00 0.00 0.00 71 1020.2
20260903190047 31 214 0.0 3.2 0.00 0.00 0.00 71 1020.3
20260903185524 31 27 1.6 3.2 0.00 0.00 0.00 71 1020.4
20260903185026 31 0 0.0 0.0 0.00 0.00 0.00 71 1020.4
20260903184603 31 0 0.0 0.0 0.00 0.00 0.00 73 1020.6
20260903184030 31 0 0.0 0.0 0.00 0.00 0.00 73 1020.6
20260903183528 31 0 0.0 1.6 0.00 0.00 0.00 72 1020.7
20260903183046 31 0 0.0 3.2 0.00 0.00 0.00 72 1020.8
20260903182526 31 0 0.0 3.2 0.00 0.00 0.00 72 1021.0
20260903182024 30 0 0.0 1.6 0.00 0.00 0.00 75 1021.0
20260903181557 30 354 0.0 1.6 0.00 0.00 0.00 73 1021.0
20260903181025 30 0 0.0 1.6 0.00 0.00 0.00 75 1021.1
20260903180525 30 294 0.0 1.6 0.00 0.00 0.00 75 1021.1
20260903180105 30 0 0.0 1.6 0.00 0.00 0.00 76 1021.1
20260903175528 29 131 0.0 1.6 0.00 0.00 0.00 77 1021.1
20260903175024 29 0 0.0 1.6 0.00 0.00 0.00 78 1021.1
20260903174606 29 350 0.0 1.6 0.00 0.00 0.00 77 1021.1
20260903174026 28 0 0.0 3.2 0.00 0.00 0.00 78 1021.2
20260903173524 28 0 0.0 3.2 0.00 0.00 0.00 80 1021.3
20260903173048 28 325 0.0 3.2 0.00 0.00 0.00 81 1021.3
20260903172527 28 0 0.0 3.2 0.00 0.00 0.00 80 1021.3
20260903172026 28 314 0.0 3.2 0.00 0.00 0.00 80 1021.4
20260903171602 28 206 0.0 1.6 0.00 0.00 0.00 81 1021.3
20260903171025 28 0 0.0 0.0 0.00 0.00 0.00 81 1021.4
20260903170525 27 0 0.0 0.0 0.00 0.00 0.00 81 1021.4
20260903170108 27 0 0.0 0.0 0.00 0.00 0.00 81 1021.3
20260903165525 27 0 0.0 0.0 0.00 0.00 0.00 81 1021.4
20260903165024 27 0 0.0 0.0 0.00 0.00 0.00 82 1021.5
20260903164557 27 0 0.0 0.0 0.00 0.00 0.00 83 1021.5
20260903164025 27 0 0.0 0.0 0.00 0.00 0.00 83 1021.6
20260903163527 27 0 0.0 0.0 0.00 0.00 0.00 84 1021.6
20260903163103 27 0 0.0 0.0 0.00 0.00 0.00 83 1021.7
20260903162524 27 0 0.0 0.0 0.00 0.00 0.00 84 1021.8
20260903162027 26 0 0.0 0.0 0.00 0.00 0.00 85 1021.8
20260903161556 26 0 0.0 0.0 0.00 0.00 0.00 85 1022.0
20260903161031 26 0 0.0 0.0 0.00 0.00 0.00 85 1022.0
20260903160526 26 0 0.0 1.6 0.00 0.00 0.00 85 1022.2
20260903160049 26 0 0.0 1.6 0.00 0.00 0.00 85 1022.2
20260903155526 26 0 0.0 1.6 0.00 0.00 0.00 85 1022.3
20260903155029 26 0 0.0 3.2 0.00 0.00 0.00 85 1022.2
20260903154559 26 0 0.0 3.2 0.00 0.00 0.00 85 1022.3
20260903154027 26 0 0.0 1.6 0.00 0.00 0.00 86 1022.4
20260903153528 26 0 0.0 1.6 0.00 0.00 0.00 86 1022.4
20260903153059 26 0 0.0 1.6 0.00 0.00 0.00 87 1022.4
20260903152529 26 0 0.0 1.6 0.00 0.00 0.00 87 1022.5
20260903152025 26 0 0.0 1.6 0.00 0.00 0.00 88 1022.7
20260903151600 25 137 0.0 1.6 0.00 0.00 0.00 88 1022.7
20260903151025 25 0 0.0 3.2 0.00 0.00 0.00 88 1022.7
20260903150526 25 0 0.0 3.2 0.00 0.00 0.00 88 1022.8
20260903150113 25 287 0.0 3.2 0.00 0.00 0.00 88 1022.7
20260903145530 25 0 0.0 3.2 0.00 0.00 0.00 89 1022.8
20260903145028 25 223 0.0 3.2 0.00 0.00 0.00 89 1022.8
20260903144553 25 253 1.6 3.2 0.00 0.00 0.00 89 1022.7
20260903144027 25 0 0.0 1.6 0.00 0.00 0.00 90 1022.8
20260903143525 25 0 0.0 4.8 0.00 0.00 0.00 90 1022.8
20260903143050 25 308 0.0 4.8 0.00 0.00 0.00 90 1022.5
20260903142526 25 0 0.0 0.0 0.00 0.00 0.00 91 1022.3
20260903142030 25 0 0.0 0.0 0.00 0.00 0.00 91 1022.3
20260903141548 24 0 0.0 0.0 0.00 0.00 0.00 90 1022.2
20260903141026 24 0 0.0 0.0 0.00 0.00 0.00 91 1022.3
20260903140527 25 0 0.0 0.0 0.00 0.00 0.00 91 1021.8
20260903140047 24 0 0.0 0.0 0.00 0.00 0.00 92 1021.6
20260903135526 24 0 0.0 0.0 0.00 0.00 0.00 92 1021.5
20260903135025 24 0 0.0 0.0 0.00 0.00 0.00 92 1021.8
20260903134559 24 0 0.0 0.0 0.00 0.00 0.00 92 1021.6
20260903134032 23 0 0.0 0.0 0.00 0.00 0.00 93 1021.7
20260903133526 23 0 0.0 0.0 0.00 0.00 0.00 93 1021.7
20260903133056 23 0 0.0 0.0 0.00 0.00 0.00 93 1021.8
20260903132527 23 0 0.0 1.6 0.00 0.00 0.00 93 1021.8
20260903132027 23 0 0.0 1.6 0.00 0.00 0.00 93 1021.7
20260903131603 23 0 0.0 0.0 0.00 0.00 0.00 94 1021.9
20260903131028 23 0 0.0 0.0 0.00 0.00 0.00 94 1021.8
20260903130525 23 0 0.0 0.0 0.00 0.00 0.00 94 1021.8
20260903130115 22 0 0.0 0.0 0.00 0.00 0.00 95 1021.8
20260903125526 22 0 0.0 0.0 0.00 0.00 0.00 95 1021.9
20260903125026 22 0 0.0 0.0 0.00 0.00 0.00 95 1021.8
20260903124605 22 0 0.0 0.0 0.00 0.00 0.00 95 1022.0
20260903124024 22 0 0.0 0.0 0.00 0.00 0.00 95 1021.8
20260903123525 22 0 0.0 0.0 0.00 0.00 0.00 95 1021.9
20260903123048 22 0 0.0 0.0 0.00 0.00 0.00 95 1021.9
20260903122529 22 0 0.0 0.0 0.00 0.00 0.00 95 1021.9
20260903122026 22 0 0.0 0.0 0.00 0.00 0.00 95 1021.9
20260903121549 22 0 0.0 0.0 0.00 0.00 0.00 95 1021.9
20260903121026 22 0 0.0 0.0 0.00 0.00 0.00 95 1021.8
20260903120528 22 0 0.0 0.0 0.00 0.00 0.00 95 1021.9
20260903120059 22 0 0.0 0.0 0.00 0.00 0.00 95 1022.0
20260903115531 22 0 0.0 0.0 0.00 0.00 0.00 95 1021.9
20260903115028 22 0 0.0 0.0 0.00 0.00 0.00 95 1021.9
20260903114600 22 0 0.0 0.0 0.00 0.00 0.00 95 1022.0
20260903114025 22 0 0.0 0.0 0.00 0.00 0.00 95 1022.0
20260903113527 22 0 0.0 0.0 0.00 0.00 0.00 95 1022.0
20260903113047 22 0 0.0 0.0 0.00 0.00 0.00 95 1021.9
20260903112528 22 0 0.0 0.0 0.00 0.00 0.00 95 1021.9
20260903112026 22 0 0.0 0.0 0.00 0.00 0.00 95 1021.9
20260903111625 22 0 0.0 0.0 0.00 0.00 0.00 95 1021.8
20260903111028 22 0 0.0 0.0 0.00 0.00 0.00 95 1021.9
20260903110527 22 0 0.0 0.0 0.00 0.00 0.00 94 1021.8
20260903110109 22 0 0.0 0.0 0.00 0.00 0.00 94 1021.7
20260903105531 22 0 0.0 0.0 0.00 0.00 0.00 94 1021.7
20260903105026 22 0 0.0 0.0 0.00 0.00 0.00 94 1021.7
20260903104632 22 0 0.0 0.0 0.00 0.00 0.00 94 1021.7
20260903104028 22 0 0.0 0.0 0.00 0.00 0.00 94 1021.7
20260903103525 22 0 0.0 0.0 0.00 0.00 0.00 94 1021.5
20260903103047 22 0 0.0 0.0 0.00 0.00 0.00 94 1021.4
20260903102528 22 0 0.0 0.0 0.00 0.00 0.00 94 1021.2
20260903102029 22 0 0.0 0.0 0.00 0.00 0.00 95 1021.1
20260903101548 22 0 0.0 0.0 0.00 0.00 0.00 95 1020.9
20260903101025 22 0 0.0 0.0 0.00 0.00 0.00 95 1020.9
20260903100529 22 0 0.0 0.0 0.00 0.00 0.00 95 1020.9
20260903100058 22 0 0.0 0.0 0.00 0.00 0.00 95 1020.8
20260903095525 22 0 0.0 0.0 0.00 0.00 0.00 95 1020.8
20260903095028 22 0 0.0 0.0 0.00 0.00 0.00 95 1020.8
20260903094606 22 0 0.0 0.0 0.00 0.00 0.00 94 1020.8
20260903094028 22 0 0.0 0.0 0.00 0.00 0.00 94 1020.8
20260903093532 22 0 0.0 0.0 0.00 0.00 0.00 94 1020.9
20260903093049 22 0 0.0 0.0 0.00 0.00 0.00 94 1021.0
20260903092528 22 0 0.0 0.0 0.00 0.00 0.00 94 1020.9
20260903092024 22 0 0.0 0.0 0.00 0.00 0.00 94 1020.8
20260903091545 22 0 0.0 0.0 0.00 0.00 0.00 94 1020.9
20260903091024 22 0 0.0 0.0 0.00 0.00 0.00 94 1020.9
20260903090528 22 0 0.0 0.0 0.00 0.00 0.00 94 1021.0
20260903090054 22 0 0.0 0.0 0.00 0.00 0.00 94 1021.1
20260903085527 22 0 0.0 0.0 0.00 0.00 0.00 94 1021.1
20260903085026 22 0 0.0 0.0 0.00 0.00 0.00 94 1021.1
20260903084550 22 0 0.0 0.0 0.00 0.00 0.00 95 1021.1
20260903084026 22 0 0.0 0.0 0.00 0.00 0.00 95 1021.0
20260903083526 22 0 0.0 0.0 0.00 0.00 0.00 95 1021.0
20260903083047 22 0 0.0 0.0 0.00 0.00 0.00 95 1021.0
20260903082525 22 0 0.0 0.0 0.00 0.00 0.00 95 1021.0
20260903082027 22 0 0.0 0.0 0.00 0.00 0.00 95 1021.1
20260903081600 22 0 0.0 0.0 0.00 0.00 0.00 95 1021.0
20260903081032 22 0 0.0 0.0 0.00 0.00 0.00 95 1021.1
20260903080528 22 0 0.0 0.0 0.00 0.00 0.00 95 1021.1
20260903080057 22 0 0.0 0.0 0.00 0.00 0.00 95 1021.1
20260903075527 22 0 0.0 0.0 0.00 0.00 0.00 95 1021.2
20260903075026 22 0 0.0 0.0 0.00 0.00 0.00 95 1021.1
20260903074548 22 0 0.0 0.0 0.00 0.00 0.00 95 1021.1
20260903074027 22 0 0.0 0.0 0.00 0.00 0.00 95 1021.1
20260903073528 22 0 0.0 0.0 0.00 0.00 0.00 95 1021.1
20260903073048 22 0 0.0 0.0 0.00 0.00 0.00 95 1021.0
20260903072525 22 0 0.0 0.0 0.00 0.00 0.00 95 1021.0
20260903072024 22 0 0.0 0.0 0.00 0.00 0.00 95 1021.1
20260903071547 22 0 0.0 0.0 0.00 0.00 0.00 95 1021.1
20260903071025 22 0 0.0 0.0 0.00 0.00 0.00 95 1021.2
20260903070528 22 0 0.0 0.0 0.00 0.00 0.00 95 1021.1
20260903070055 22 0 0.0 0.0 0.00 0.00 0.00 95 1021.1
20260903065526 22 0 0.0 0.0 0.00 0.00 0.00 95 1021.1
20260903065026 22 0 0.0 0.0 0.00 0.00 0.00 95 1021.1
20260903064546 22 0 0.0 0.0 0.00 0.00 0.00 95 1021.0
20260903064026 22 0 0.0 0.0 0.00 0.00 0.00 94 1021.0
20260903063525 22 0 0.0 0.0 0.00 0.00 0.00 94 1021.2
20260903063046 22 0 0.0 0.0 0.00 0.00 0.00 94 1021.1
20260903062530 22 0 0.0 0.0 0.00 0.00 0.00 95 1021.1
20260903062029 22 0 0.0 0.0 0.00 0.00 0.00 94 1021.0
20260903061559 22 0 0.0 0.0 0.00 0.00 0.00 94 1020.9
20260903061029 22 0 0.0 0.0 0.00 0.00 0.00 94 1020.9
20260903060526 22 0 0.0 0.0 0.00 0.00 0.00 94 1020.9
20260903060052 22 0 0.0 0.0 0.00 0.00 0.00 93 1021.0
20260903055530 22 0 0.0 0.0 0.00 0.00 0.00 93 1020.9
20260903055023 22 0 0.0 0.0 0.00 0.00 0.00 93 1021.0
20260903054548 23 0 0.0 0.0 0.00 0.00 0.00 93 1020.9
20260903054028 23 0 0.0 0.0 0.00 0.00 0.00 92 1020.9
20260903053525 23 0 0.0 0.0 0.00 0.00 0.00 92 1020.9
20260903053103 23 0 0.0 0.0 0.00 0.00 0.00 91 1020.8
20260903052527 23 0 0.0 0.0 0.00 0.00 0.00 91 1021.1
20260903052028 23 0 0.0 0.0 0.00 0.00 0.00 91 1021.0
20260903051555 23 0 0.0 0.0 0.00 0.00 0.00 90 1020.8
20260903051025 24 0 0.0 0.0 0.00 0.00 0.00 89 1020.9
20260903050526 24 0 0.0 0.0 0.00 0.00 0.00 89 1020.9
20260903050053 24 0 0.0 0.0 0.00 0.00 0.00 88 1020.8
20260903045526 24 0 0.0 0.0 0.00 0.00 0.00 89 1020.6
20260903045026 24 0 0.0 1.6 0.00 0.00 0.00 89 1020.5
20260903044545 24 0 0.0 1.6 0.00 0.00 0.00 90 1020.5
20260903044028 24 0 0.0 1.6 0.00 0.00 0.00 90 1020.5
20260903043527 23 0 0.0 1.6 0.00 0.00 0.00 90 1020.6
20260903043059 23 103 0.0 1.6 0.00 0.00 0.00 90 1020.6
20260903042524 23 103 0.0 0.0 0.00 0.00 0.00 91 1020.6
20260903042025 23 0 0.0 0.0 0.00 0.00 0.00 91 1020.7
20260903041554 24 0 0.0 0.0 0.00 0.00 0.00 91 1020.7
20260903041025 24 0 0.0 0.0 0.00 0.00 0.00 90 1020.6
20260903040526 24 0 0.0 0.0 0.00 0.00 0.00 90 1020.7
20260903040109 24 0 0.0 0.0 0.00 0.00 0.00 90 1020.7
20260903035529 24 0 0.0 0.0 0.00 0.00 0.00 90 1020.7
20260903035027 24 0 0.0 0.0 0.00 0.00 0.00 90 1020.8
20260903034557 24 0 0.0 0.0 0.00 0.00 0.00 90 1020.8
20260903034025 24 0 0.0 0.0 0.00 0.00 0.00 91 1020.8
20260903033524 23 0 0.0 0.0 0.00 0.00 0.00 91 1020.9
20260903033055 23 0 0.0 0.0 0.00 0.00 0.00 91 1021.0
20260903032524 23 0 0.0 0.0 0.00 0.00 0.00 92 1020.8
20260903032027 24 0 0.0 0.0 0.00 0.00 0.00 91 1020.9
20260903031550 24 0 0.0 0.0 0.00 0.00 0.00 90 1020.9
20260903031027 24 0 0.0 0.0 0.00 0.00 0.00 90 1021.1
20260903030525 25 0 0.0 0.0 0.00 0.00 0.00 89 1021.1
20260903030108 25 0 0.0 0.0 0.00 0.00 0.00 89 1020.9
20260903025529 25 0 0.0 0.0 0.00 0.00 0.00 89 1021.2
20260903025026 25 0 0.0 0.0 0.00 0.00 0.00 89 1021.1
20260903024558 25 0 0.0 0.0 0.00 0.00 0.00 88 1021.2
20260903024027 25 0 0.0 0.0 0.00 0.00 0.00 88 1021.2
20260903023525 25 0 0.0 0.0 0.00 0.00 0.00 88 1021.3
20260903023052 25 0 0.0 0.0 0.00 0.00 0.00 89 1021.2
20260903022528 25 0 0.0 0.0 0.00 0.00 0.00 89 1021.1
20260903022023 25 0 0.0 0.0 0.00 0.00 0.00 89 1021.1
20260903021547 25 0 0.0 0.0 0.00 0.00 0.00 89 1021.0
20260903021024 25 0 0.0 0.0 0.00 0.00 0.00 88 1021.1
20260903020526 25 0 0.0 0.0 0.00 0.00 0.00 88 1021.0
20260903020048 25 0 0.0 0.0 0.00 0.00 0.00 87 1020.9
20260903015526 25 0 0.0 0.0 0.00 0.00 0.00 87 1021.1
20260903015025 25 0 0.0 0.0 0.00 0.00 0.00 87 1021.2
20260903014558 26 0 0.0 0.0 0.00 0.00 0.00 87 1021.3
20260903014024 26 0 0.0 0.0 0.00 0.00 0.00 87 1021.3
20260903013526 26 0 0.0 0.0 0.00 0.00 0.00 86 1021.3
20260903013102 26 0 0.0 0.0 0.00 0.00 0.00 86 1021.3
20260903012526 26 0 0.0 0.0 0.00 0.00 0.00 86 1021.3
20260903012025 26 0 0.0 0.0 0.00 0.00 0.00 86 1021.3
20260903011605 26 0 0.0 0.0 0.00 0.00 0.00 86 1021.3
20260903011027 26 0 0.0 0.0 0.00 0.00 0.00 85 1021.3
20260903010527 26 0 0.0 0.0 0.00 0.00 0.00 85 1021.2
20260903010055 26 0 0.0 0.0 0.00 0.00 0.00 85 1021.3
20260903005526 26 0 0.0 0.0 0.00 0.00 0.00 85 1021.1
20260903005031 26 0 0.0 0.0 0.00 0.00 0.00 84 1020.9
20260903004546 26 0 0.0 0.0 0.00 0.00 0.00 84 1020.9
20260903004026 26 0 0.0 0.0 0.00 0.00 0.00 84 1020.8
20260903003525 27 0 0.0 0.0 0.00 0.00 0.00 84 1020.9
20260903003045 27 0 0.0 0.0 0.00 0.00 0.00 84 1020.9
20260903002526 27 0 0.0 0.0 0.00 0.00 0.00 83 1020.8
20260903002024 27 0 0.0 0.0 0.00 0.00 0.00 83 1020.8
20260903001551 27 0 0.0 0.0 0.00 0.00 0.00 83 1020.8
20260903001026 27 0 0.0 0.0 0.00 0.00 0.00 83 1020.7
20260903000526 27 0 0.0 0.0 0.00 0.00 0.00 83 1020.9
20260903000046 27 0 0.0 0.0 0.00 0.00 0.00 82 1021.0
20260902235527 27 0 0.0 0.0 0.00 0.00 0.00 82 1020.8
20260902235025 27 0 0.0 0.0 0.00 0.00 0.00 82 1020.8
20260902234546 27 0 0.0 0.0 0.00 0.00 0.00 82 1020.7
20260902234025 27 0 0.0 1.6 0.00 0.00 0.00 82 1020.8
20260902233525 28 0 0.0 1.6 0.00 0.00 0.00 81 1020.9
20260902233050 28 0 0.0 0.0 0.00 0.00 0.00 81 1020.8
20260902232529 28 0 0.0 0.0 0.00 0.00 0.00 81 1020.8
20260902232026 28 0 0.0 1.6 0.00 0.00 0.00 80 1020.7
20260902231606 28 0 0.0 1.6 0.00 0.00 0.00 79 1020.7
20260902231031 28 121 0.0 1.6 0.00 0.00 0.00 79 1020.5
20260902230525 29 0 0.0 1.6 0.00 0.00 0.00 78 1020.7
20260902230045 29 0 0.0 1.6 0.00 0.00 0.00 77 1020.5
20260902225526 29 0 0.0 1.6 0.00 0.00 0.00 76 1020.4
20260902225025 29 0 0.0 1.6 0.00 0.00 0.00 76 1020.6
20260902224604 29 0 0.0 3.2 0.00 0.00 0.00 77 1020.7
20260902224031 30 0 0.0 3.2 0.00 0.00 0.00 77 1020.6
20260902223525 30 0 0.0 3.2 0.00 0.00 0.00 76 1020.6
20260902223055 30 0 0.0 0.0 0.00 0.00 0.00 76 1020.6
20260902222528 30 0 0.0 1.6 0.00 0.00 0.00 75 1020.6
20260902222028 30 0 0.0 1.6 0.00 0.00 0.00 76 1020.6
20260902221604 30 0 0.0 1.6 0.00 0.00 0.00 75 1020.7
20260902221026 30 0 0.0 0.0 0.00 0.00 0.00 75 1020.7
20260902220526 30 0 0.0 1.6 0.00 0.00 0.00 75 1020.8
20260902220058 30 0 0.0 1.6 0.00 0.00 0.00 75 1020.7
20260902215524 30 0 0.0 1.6 0.00 0.00 0.00 75 1020.8
20260902215027 30 0 0.0 1.6 0.00 0.00 0.00 74 1020.7
20260902214547 30 0 0.0 3.2 0.00 0.00 0.00 73 1020.7
20260902214100 30 0 0.0 3.2 0.00 0.00 0.00 73 1020.8
20260902213526 30 0 0.0 3.2 0.00 0.00 0.00 71 1020.8
20260902213055 30 45 0.0 3.2 0.00 0.00 0.00 72 1020.6
20260902212528 30 0 0.0 3.2 0.00 0.00 0.00 73 1020.7